Chubbuck, ID

2:28 AM MST on February 07, 2016 (GMT -0700)
Pocatello Regional

Weather History for KPIH - September, 2014

Change the Weather History Date:

Tuesday, September 30, 2014

  Actual Average Record
Temperature  
Mean Temperature 52 °F 53 °F  
Max Temperature 61 °F 69 °F 90 °F (1957)
Min Temperature 43 °F 37 °F 19 °F (1985)
Degree Days  
Heating Degree Days 13 12  
Month to date heating degree days 143 203  
Since 1 July heating degree days 178 249  
Cooling Degree Days 0 0  
Month to date cooling degree days 35 22  
Year to date cooling degree days 421 392  
Growing Degree Days 3 (Base 50)    
Moisture  
Dew Point 46 °F    
Average Humidity 70    
Maximum Humidity 100    
Minimum Humidity 39    
Precipitation  
Precipitation T in 0.03 in 0.49 in (1986)
Month to date precipitation 1.48 0.84  
Year to date precipitation 10.26 8.91  
Snow  
Snow 0.00 in - - ()
Month to date snowfall 0.0  
Since 1 July snowfall 0.0  
Since 1 September snowfall 0.0  
Snow Depth 0.00 in    
Sea Level Pressure  
Sea Level Pressure 29.91 in    
Wind  
Wind Speed 14 mph (SW)    
Max Wind Speed 33 mph    
Max Gust Speed 39 mph    
Visibility 10 miles    
Events Rain    
T = Trace of Precipitation, MM = Missing Value Source: NWS Daily Summary

Daily Weather History Graph

Daily Weather History Graph

Search for Another Location

Airport or City:

Trip Planner

Search our weather history database for the weather conditions in past years. The results will help you decide how hot, cold, wet, or windy it might be!

Date:

Astronomy

Sep. 30, 2014 Rise Set
Actual Time 7:26 AM MDT 7:13 PM MDT
Civil Twilight 6:58 AM MDT 7:41 PM MDT
Nautical Twilight 6:25 AM MDT 8:14 PM MDT
Astronomical Twilight 5:52 AM MDT 8:47 PM MDT
Moon 1:44 PM MDT (9/30) 11:40 PM MDT (9/30)
Length of Visible Light 12h 43m
Length of Day
11h 46m
Waxing Crescent, 38% of the Moon is Illuminated
Sep 30
Waxing Crescent
Oct 1
First Quarter
Oct 8
Full
Oct 15
Last Quarter
Oct 23
New

Hourly Weather History & Observations

Time (MDT) Temp. Dew Point Humidity Pressure Visibility Wind Dir Wind Speed Gust Speed Precip Events Conditions
12:37 AM 51.1 °F 50.0 °F 96% 29.97 in 10.0 mi SW 12.7 mph - N/A   Overcast
12:53 AM 51.1 °F 50.0 °F 96% 29.90 in 10.0 mi SW 17.3 mph - N/A   Overcast
1:34 AM 50.0 °F 50.0 °F 100% 29.97 in 10.0 mi SW 12.7 mph - N/A   Mostly Cloudy
1:53 AM 50.0 °F 50.0 °F 100% 29.90 in 10.0 mi WSW 10.4 mph - N/A   Overcast
2:04 AM 50.0 °F 50.0 °F 100% 29.97 in 10.0 mi SW 10.4 mph - N/A   Overcast
2:16 AM 50.0 °F 50.0 °F 100% 29.98 in 10.0 mi SW 9.2 mph - N/A   Overcast
2:53 AM 50.0 °F 48.9 °F 96% 29.92 in 10.0 mi SW 11.5 mph - N/A   Overcast
3:37 AM 50.0 °F 48.9 °F 96% 29.97 in 10.0 mi SW 9.2 mph - N/A   Overcast
3:53 AM 50.0 °F 48.9 °F 96% 29.91 in 10.0 mi SW 9.2 mph - N/A   Overcast
4:50 AM 50.0 °F 48.2 °F 94% 29.95 in 10.0 mi SSW 8.1 mph - 0.00 in Rain Light Rain
4:53 AM 50.0 °F 48.9 °F 96% 29.89 in 10.0 mi SSW 9.2 mph - 0.00 in Rain Light Rain
5:03 AM 50.0 °F 50.0 °F 100% 29.95 in 10.0 mi SSW 8.1 mph - 0.00 in Rain Light Rain
5:53 AM 50.0 °F 50.0 °F 100% 29.89 in 10.0 mi SW 10.4 mph - 0.00 in Rain Light Rain
6:53 AM 50.0 °F 50.0 °F 100% 29.88 in 10.0 mi SSW 6.9 mph - 0.00 in   Overcast
7:53 AM 51.1 °F 48.9 °F 92% 29.88 in 10.0 mi SW 8.1 mph - N/A   Overcast
8:53 AM 52.0 °F 48.9 °F 89% 29.89 in 10.0 mi SW 9.2 mph - N/A   Overcast
9:24 AM 53.1 °F 48.9 °F 86% 29.94 in 10.0 mi SW 10.4 mph - N/A   Mostly Cloudy
9:53 AM 53.1 °F 48.0 °F 83% 29.90 in 10.0 mi WSW 12.7 mph - N/A   Overcast
10:53 AM 54.0 °F 48.0 °F 80% 29.89 in 10.0 mi WSW 11.5 mph - N/A   Overcast
11:53 AM 53.1 °F 50.0 °F 89% 29.89 in 10.0 mi WSW 19.6 mph 29.9 mph 0.00 in   Overcast
12:53 PM 55.0 °F 51.1 °F 86% 29.87 in 10.0 mi SW 21.9 mph - N/A   Overcast
1:53 PM 55.9 °F 48.0 °F 75% 29.87 in 10.0 mi SW 24.2 mph 33.4 mph N/A   Mostly Cloudy
2:53 PM 55.9 °F 46.9 °F 72% 29.86 in 10.0 mi WSW 21.9 mph 29.9 mph N/A   Mostly Cloudy
3:53 PM 60.1 °F 35.1 °F 39% 29.83 in 10.0 mi West 27.6 mph 35.7 mph N/A   Mostly Cloudy
4:53 PM 57.0 °F 39.9 °F 53% 29.84 in 10.0 mi WSW 28.8 mph 34.5 mph N/A   Scattered Clouds
5:53 PM 55.9 °F 37.9 °F 51% 29.86 in 10.0 mi WSW 16.1 mph 29.9 mph N/A   Scattered Clouds
6:53 PM 52.0 °F 37.9 °F 59% 29.87 in 10.0 mi WSW 15.0 mph - N/A   Scattered Clouds
7:53 PM 50.0 °F 37.0 °F 61% 29.89 in 10.0 mi SW 15.0 mph 20.7 mph N/A   Partly Cloudy
8:53 PM 46.9 °F 37.0 °F 68% 29.93 in 10.0 mi SSW 12.7 mph 23.0 mph N/A   Clear
9:53 PM 46.9 °F 35.1 °F 63% 29.94 in 10.0 mi South 15.0 mph - N/A   Clear
10:53 PM 46.9 °F 34.0 °F 61% 29.93 in 10.0 mi SW 18.4 mph 29.9 mph N/A   Clear
11:53 PM 51.1 °F 50.0 °F 96% 29.90 in 10.0 mi SW 9.2 mph - 0.03 in   Overcast